Regional Weather Roundup
Issued by NWS

Home | Current Version | Previous Version | Graphics & Text | Print | Product List | Glossary On
Versions: 1 2 3 4 5 6 7 8 9 10 11 12 13 14 15 16 17 18 19 20 21 22 23 24 25 26 27 28 29 30 31 32 33 34 35 36 37 38 39 40 41 42 43 44 45 46 47 48 49 50
000
ASUS43 KMPX 282301
RWRMN
WEATHER ROUNDUP FOR MINNESOTA
NATIONAL WEATHER SERVICE TWIN CITIES/CHANHASSEN MN
600 PM CDT SUN AUG 28 2016


NOTE: "FAIR" INDICATES FEW OR NO CLOUDS BELOW 12,000 FEET WITH NO
SIGNIFICANT WEATHER AND/OR OBSTRUCTIONS TO VISIBILITY. N/A MEANS
CURRENT SKY AND/OR WEATHER CONDITIONS ARE NOT AVAILABLE.

MNZ060>063-068>070-290000-
   Twin Cities Metro

CITY           SKY/WX    TMP DP  RH WIND       PRES   REMARKS
TWIN CITIES    MOSUNNY   84  66  54 S10       30.09S
ST PAUL        SUNNY     82  68  62 SE10      30.09S
CRYSTAL        SUNNY     83  65  54 S12       30.07S
BLAINE         MOSUNNY   84  70  61 S9        30.09S
LAKEVILLE      SUNNY     81  70  69 S5        30.10S
EDEN PRAIRIE   MOSUNNY   83  68  60 S12       30.08S
LAKEVILLE      SUNNY     81  70  69 S5        30.10S
SOUTH ST PAUL  SUNNY     83  66  56 SE7       30.10S
LAKE ELMO      FAIR      81  70  69 SE8       30.11S
$$
MNZ001>005-007-008-013>017-022>024-027-028-290000-
   Northwest Minnesota

CITY           SKY/WX    TMP DP  RH WIND       PRES   REMARKS
BEMIDJI        SUNNY     77  66  68 SE14G21   30.04F
HALLOCK        MOSUNNY   82  64  54 S17       29.95R THUNDER
ROSEAU         PTSUNNY   73  64  73 SE9       30.02S
WARROAD        CLOUDY    75  66  73 SE9       30.02F
THIEF RVR FALL SUNNY     80  67  64 SE15G21   29.98F
CROOKSTON      MOSUNNY   82  70  65 S10       29.95F
FOSSTON        SUNNY     82  68  61 SE10      30.00F
DETROIT LAKES  SUNNY     81  70  69 SE13      30.00S
MOORHEAD       SUNNY     88  70  55 S14       29.93S HX  92
PARK RAPIDS    PTSUNNY   80  66  62 SE15      30.04S
MAHNOMEN       FAIR      81  67  63 SE13G21   29.97F
$$
MNZ006-009>011-018-025>026-290000-
   North Central Minnesota

CITY           SKY/WX    TMP DP  RH WIND       PRES   REMARKS
BAUDETTE       CLOUDY    73  64  73 SE8       30.05S
FLAG ISLAND    SUNNY     70  63  78 CALM      30.03F
INTL FALLS     SUNNY     73  63  70 SE8       30.10S
WASKISH          N/A     73  64  73 E7        30.05F
BIG FORK       PTSUNNY   73  63  68 CALM      30.10S
LONGVILLE      MOSUNNY   75  66  73 SE8       30.08S
GRAND RAPIDS   MOSUNNY   75  65  70 SE10      30.11F
CRANE LAKE     SUNNY     72  63  73 S5        30.14S
ORR            MOSUNNY   73  61  64 SE6       30.10S
COOK           SUNNY     75  63  64 SE3       30.13S
WALKER         FAIR      76  67  73 SE8       30.05F
$$
MNZ012-019>021-037-290000-
   Northeast Minnesota

CITY           SKY/WX    TMP DP  RH WIND       PRES   REMARKS
DULUTH         MOSUNNY   71  64  78 SE8       30.15S
ELY            SUNNY     75  57  53 SW3       30.14S
HIBBING        SUNNY     74  62  66 S7        30.12S
EVELETH        MOSUNNY   74  59  59 S9        30.15S
DULUTH HARBOR  SUNNY     68  64  88 NE10      30.14S
TWO HARBORS    SUNNY     73  64  73 E6        30.14S
SILVER BAY     SUNNY     72  63  73 CALM      30.14F
G MARAIS ARPRT SUNNY     64  54  68 S3        30.21S
$$
MNZ029>031-032-039>041-046>048-054>057-064-290000-
   West Central Minnesota

CITY           SKY/WX    TMP DP  RH WIND       PRES   REMARKS
FERGUS FALLS   SUNNY     84  72  65 S17       29.98S
MORRIS         SUNNY     88  72  58 S14G22    29.98S HX  94
ALEXANDRIA     SUNNY     82  70  66 S18       30.04S
ELBOW LAKE     FAIR      83  73  72 SE16G24   29.99S HAZE
WADENA         SUNNY     81  70  69 SE13      30.03S
GLENWOOD       SUNNY     82  72  69 SE17G23   30.04F
APPLETON       SUNNY     86  72  62 S12G17    29.98S HX  92
BENSON         SUNNY     84  72  65 S13       30.00S
ORTONVILLE     SUNNY     88  72  58 S15       29.97S HX  94
MADISON        SUNNY     84  70  61 S15       29.99S
WILLMAR        FAIR      82  73  74 SE14G20   30.05S
$$
MNZ033>034-036-042>043-049>051-058-059-290000-
   Central Minnesota

CITY           SKY/WX    TMP DP  RH WIND       PRES   REMARKS
ST CLOUD       MOSUNNY   81  70  69 S12       30.06F
SAUK CENTRE    FAIR      82  70  65 SE14G20   30.05S
PAYNESVILLE    SUNNY     82  67  58 SE9G18    30.06S
AITKIN         PTSUNNY   79  64  61 SE9       30.09S
PINE RIVER     CLOUDY    77  70  78 SE10      30.10S
BRAINERD       CLOUDY    76  69  79 SE7       30.08S
STAPLES        SUNNY     79  68  69 SE10G17   30.05S
LONG PRAIRIE   FAIR      81  68  65 SE14      30.05F
LITTLE FALLS   MOSUNNY   79  68  69 SE10      30.06S
LITCHFIELD     SUNNY     82  72  69 SE9       30.06S
BUFFALO        SUNNY     82  68  61 SE9       30.08F
MAPLE LAKE     MOSUNNY   83  72  69 SE5       30.08S
HUTCHINSON     MOSUNNY   83  71  66 SE8       30.08S
$$
MNZ037-044-045-052-053-290000-
   East Central Minnesota

CITY           SKY/WX    TMP DP  RH WIND       PRES   REMARKS
PRINCETON      SUNNY     82  72  69 SE8       30.08F
MORA           PTSUNNY   75  66  73 E7        30.11F
CAMBRIDGE      SUNNY     82  68  61 E5        30.08S
RUSH CITY      SUNNY     78  69  73 E5        30.11S
MOOSE LAKE     PTSUNNY   77  64  65 SE3       30.11S
HINCKLEY       CLOUDY    75  70  83 E5        30.11F
CLOQUET        MOSUNNY   73  61  64 SE3       30.13F
MCGREGOR       PTSUNNY   75  66  73 SE8       30.11S
$$
MNZ071>073-080-081-089-090-097-098-290000-
   Southwest Minnesota

CITY           SKY/WX    TMP DP  RH WIND       PRES   REMARKS
MONTEVIDEO     SUNNY     88  73  62 S13G18    30.02S HX  96
GRANITE FALLS  SUNNY     86  74  66 SE13G24   30.03S HX  93
CANBY          SUNNY     87  72  60 S13G20    30.01R HX  93
MARSHALL       SUNNY     86  74  67 S15       30.02S HX  94
REDWOOD FALLS  SUNNY     84  71  65 SE17G23   30.03F
OLIVIA         SUNNY     82  70  65 SE15      30.04S
PIPESTONE      SUNNY     82  72  69 S12       30.05S
WINDOM         SUNNY     84  70  61 SE13      30.07S
WORTHINGTON    MOSUNNY   83  73  72 SE12      30.08S
JACKSON          N/A     84  66  54 S9        30.10R
TRACY          SUNNY     85  74  69 S8        30.04S HX  93
SLAYTON        MOSUNNY   82  73  74 S13       30.07S
$$
MNZ065>067-074>077-082>085-091>093-290000-
   South Central Minnesota

CITY           SKY/WX    TMP DP  RH WIND       PRES   REMARKS
MANKATO        SUNNY     82  68  61 S9        30.09S
NEW ULM        SUNNY     82  70  65 S12       30.07R
ST JAMES       SUNNY     79  64  61 SE9       30.08S
FAIRMONT       SUNNY     83  70  64 SE13      30.09S
GLENCOE        SUNNY     84  73  67 SE8       30.08R HX  90
FARIBAULT      SUNNY     82  68  61 SE6       30.11S
OWATONNA       SUNNY     81  66  61 S7        30.12R
WASECA         PTSUNNY   79  68  69 S8        30.12R
ALBERT LEA     MOSUNNY   82  68  61 S8        30.12R
$$
MNZ078>079-086>088-094>096-290000-
   Southeast Minnesota

CITY           SKY/WX    TMP DP  RH WIND       PRES   REMARKS
ROCHESTER      CLOUDY    82  68  62 S8        30.14S
RED WING       SUNNY     82  68  61 SE7       30.10R
DODGE CENTER   MOSUNNY   82  66  57 S8        30.13S
WINONA         SUNNY     79  68  69 E8        30.13S
AUSTIN         CLOUDY    81  70  69 S6        30.13R
PRESTON        CLOUDY    80  69  67 S8        30.15S
$$
ABBREVIATIONS USED IN REMARKS
   TC - TEMPERATURES IN CELSIUS
  WCI - WIND CHILL INDEX
   HX - HEAT INDEX
  VSB - VISIBILITY
$$




USA.gov is the U.S. government's official web portal to all federal, state and local government web resources and services.